Regional Weather Roundup
Issued by NWS

Home | Current Version | Previous Version | Graphics & Text | Print | Product List | Glossary Off
Versions: 1 2 3 4 5 6 7 8 9 10 11 12 13 14 15 16 17 18 19 20 21 22 23 24 25 26 27 28 29 30 31 32 33 34 35 36 37 38 39 40 41 42 43 44 45 46 47 48 49 50

000
ASUS43 KMPX 242101
RWRMN
WEATHER ROUNDUP FOR MINNESOTA
NATIONAL WEATHER SERVICE TWIN CITIES/CHANHASSEN MN
400 PM CDT WED AUG 24 2016


NOTE: "FAIR" INDICATES FEW OR NO CLOUDS BELOW 12,000 FEET WITH NO
SIGNIFICANT WEATHER AND/OR OBSTRUCTIONS TO VISIBILITY. N/A MEANS
CURRENT SKY AND/OR WEATHER CONDITIONS ARE NOT AVAILABLE.

MNZ060>063-068>070-242200-
   Twin Cities Metro

CITY           SKY/WX    TMP DP  RH WIND       PRES   REMARKS
TWIN CITIES    CLOUDY    80  55  42 W13       29.93S
ST PAUL        CLOUDY    79  56  45 W15G24    29.93R
CRYSTAL        MOSUNNY   80  54  40 W10       29.92R
BLAINE         PTSUNNY   81  55  41 W13G22    29.93R
LAKEVILLE      CLOUDY    75  63  64 W9        29.95R
EDEN PRAIRIE   PTSUNNY   79  60  52 W9        29.94R
LAKEVILLE      CLOUDY    75  63  64 W9        29.95R
SOUTH ST PAUL  PTSUNNY   80  55  42 W9        29.93R
LAKE ELMO      FAIR      79  59  50 NW7       29.94R
$$
MNZ001>005-007-008-013>017-022>024-027-028-242200-
   Northwest Minnesota

CITY           SKY/WX    TMP DP  RH WIND       PRES   REMARKS
BEMIDJI        PTSUNNY   73  53  50 W17G25    29.91R
HALLOCK        PTSUNNY   72  52  49 W14       29.85R
ROSEAU         SUNNY     75  54  46 W15       29.84R
WARROAD        PTSUNNY   72  57  60 W12G23    29.84R
THIEF RVR FALL CLOUDY    71  51  49 W17G24    29.91R
CROOKSTON      MOSUNNY   73  54  49 W15G24    29.90S
FOSSTON        PTSUNNY   70  52  52 W14       29.93R
DETROIT LAKES  MOSUNNY   72  52  49 W13G21    29.97R
MOORHEAD       MOSUNNY   75  52  43 W16G24    29.95S
PARK RAPIDS    CLOUDY    73  52  47 W17       29.93S
MAHNOMEN       CLOUDY    71  53  52 W18       29.94R
$$
MNZ006-009>011-018-025>026-242200-
   North Central Minnesota

CITY           SKY/WX    TMP DP  RH WIND       PRES   REMARKS
BAUDETTE       MOSUNNY   74  54  49 W16G23    29.83R
FLAG ISLAND    SUNNY     73  52  46 SW8       29.79R HAZE
INTL FALLS     PTSUNNY   75  54  47 W12G22    29.81R
WASKISH        SUNNY     73  57  56 W15G22    29.87R
BIG FORK       MOSUNNY   77  54  44 W8G17     29.87R
LONGVILLE      MOSUNNY   75  55  50 W9        29.91R
GRAND RAPIDS   MOSUNNY   77  55  46 W10G17    29.90R
CRANE LAKE     CLOUDY    75  52  43 W5        29.82R
ORR            MOSUNNY   79  48  34 W13G18    29.82R
COOK           CLOUDY    79  54  41 W10G17    29.84R
WALKER         FAIR      72  54  53 W13G23    29.91S
$$
MNZ012-019>021-037-242200-
   Northeast Minnesota

CITY           SKY/WX    TMP DP  RH WIND       PRES   REMARKS
DULUTH         MOSUNNY   80  53  39 W17       29.86R
ELY            MOSUNNY   79  52  38 W16       29.82R
HIBBING        MOSUNNY   76  52  43 NW14G20   29.86R
EVELETH        CLOUDY    78  47  33 W17G26    29.86S
DULUTH HARBOR  PTSUNNY   82  55  39 SW17      29.83R
TWO HARBORS    MOSUNNY   84  61  45 W8G17     29.81R
SILVER BAY     MOSUNNY   82  55  39 W7        29.79S
G MARAIS ARPRT SUNNY     75  61  60 W10G17    29.82R
$$
MNZ029>031-032-039>041-046>048-054>057-064-242200-
   West Central Minnesota

CITY           SKY/WX    TMP DP  RH WIND       PRES   REMARKS
FERGUS FALLS   MOSUNNY   73  55  53 W17       29.98S
WHEATON        MOSUNNY   75  57  53 W14G20    29.99F
MORRIS         CLOUDY    75  55  50 W17       29.98S
ALEXANDRIA     CLOUDY    74  55  51 W17G25    29.98S
ELBOW LAKE     FAIR      71  56  58 NW14G20   29.98S
WADENA         MOSUNNY   72  55  56 W12G23    29.94S
GLENWOOD       CLOUDY    73  55  53 W18G26    29.98F
APPLETON         N/A     75  52  43 NW13G21   29.98
BENSON         PTSUNNY   77  52  41 NW15G22   29.98S
ORTONVILLE     CLOUDY    73  55  53 W10G20    29.99S
MADISON        PTSUNNY   75  54  46 W13       29.99F
WILLMAR        FAIR      75  57  53 W16       29.99S
$$
MNZ033>034-036-042>043-049>051-058-059-242200-
   Central Minnesota

CITY           SKY/WX    TMP DP  RH WIND       PRES   REMARKS
ST CLOUD       CLOUDY    76  58  53 W12       29.95R
SAUK CENTRE    FAIR      72  57  58 W15       29.97S
PAYNESVILLE    CLOUDY    73  55  52 W13G20    29.98R
AITKIN         CLOUDY    77  48  36 W12G17    29.90R
PINE RIVER     SUNNY     75  55  50 W13G21    29.95R
BRAINERD       CLOUDY    76  54  46 W14G20    29.92S
STAPLES        CLOUDY    73  52  46 W17G23    29.95R
LONG PRAIRIE   FAIR      72  54  53 SW13G18   29.96F
LITTLE FALLS   CLOUDY    73  52  46 W14       29.94F
LITCHFIELD     CLOUDY    75  57  53 W10       29.98R
BUFFALO        CLOUDY    77  55  46 W12G17    29.96S
MAPLE LAKE     CLOUDY    77  57  50 W10       29.97R
HUTCHINSON     SUNNY     75  61  60 W8        29.99R
$$
MNZ037-044-045-052-053-242200-
   East Central Minnesota

CITY           SKY/WX    TMP DP  RH WIND       PRES   REMARKS
PRINCETON      CLOUDY    81  55  41 W12       29.93S
MORA           MOSUNNY   75  54  46 W9        29.93R
CAMBRIDGE      CLOUDY    81  61  50 W12       29.91S
RUSH CITY      CLOUDY    77  58  50 W7        29.91S
MOOSE LAKE     CLOUDY    75  54  46 SW6       29.87R
HINCKLEY       FAIR      79  55  44 W14G21    29.90S
CLOQUET        MOSUNNY   79  46  31 W15       29.87S
MCGREGOR       PTSUNNY   77  50  38 W10G18    29.90R
$$
MNZ071>073-080-081-089-090-097-098-242200-
   Southwest Minnesota

CITY           SKY/WX    TMP DP  RH WIND       PRES   REMARKS
MONTEVIDEO     CLOUDY    75  57  53 NW12      30.00F
GRANITE FALLS  CLOUDY    75  58  55 W12G17    30.01S
CANBY          CLOUDY    75  55  50 W14       30.02R
MARSHALL       CLOUDY    74  57  55 W13       30.01R
REDWOOD FALLS  CLOUDY    75  59  57 W13       29.99R
OLIVIA         CLOUDY    75  59  57 NW10G17   29.98S
PIPESTONE      PTSUNNY   72  54  53 NW8       30.06R
WINDOM         CLOUDY    73  57  56 W9        30.02S
WORTHINGTON    CLOUDY    74  58  57 NW13      30.04S
JACKSON        CLOUDY    73  57  56 NW5       30.04R
TRACY          CLOUDY    74  60  61 W7        30.02S
$$
MNZ065>067-074>077-082>085-091>093-242200-
   South Central Minnesota

CITY           SKY/WX    TMP DP  RH WIND       PRES   REMARKS
MANKATO        PTSUNNY   75  57  53 NW12      29.98R
NEW ULM        CLOUDY    73  57  56 W12G18    29.99S
ST JAMES       CLOUDY    70  57  64 W6        30.01R
FAIRMONT       CLOUDY    75  58  55 NW10      30.02R
GLENCOE        CLOUDY    76  62  62 W8        29.97R
FARIBAULT      MOSUNNY   79  63  57 W9G16     29.97R
OWATONNA       PTSUNNY   79  63  57 W6        29.97R
WASECA         CLOUDY    73  63  68 W9        30.00R
ALBERT LEA     MOSUNNY   79  64  61 CALM      29.98R
$$
MNZ078>079-086>088-094>096-242200-
   Southeast Minnesota

CITY           SKY/WX    TMP DP  RH WIND       PRES   REMARKS
ROCHESTER      SUNNY     79  66  64 NW8G20    29.96S
RED WING       CLOUDY    81  64  57 W6        29.91S
DODGE CENTER   MOSUNNY   79  63  57 NW10      29.97R
WINONA         CLOUDY    79  68  69 NW7       29.92S
AUSTIN         MOSUNNY   79  63  57 NW13      29.97R
PRESTON        PTSUNNY   76  69  77 NW9       29.96R
$$
ABBREVIATIONS USED IN REMARKS
   TC - TEMPERATURES IN CELSIUS
  WCI - WIND CHILL INDEX
   HX - HEAT INDEX
  VSB - VISIBILITY
$$




USA.gov is the U.S. government's official web portal to all federal, state and local government web resources and services.